Regional Weather Roundup
Issued by NWS Green Bay, WI

Home | Current Version | Previous Version | Graphics & Text | Print | Product List | Glossary Off
Versions: 1 2 3 4 5 6 7 8 9 10 11 12 13 14 15 16 17 18 19 20 21 22 23 24 25 26 27 28 29 30 31 32 33 34 35 36 37 38 39 40 41 42 43 44 45 46 47 48 49 50

000
ASUS43 KGRB 162300
RWRGRB

NORTH-CENTRAL AND NORTHEAST WISCONSIN REGIONAL WEATHER ROUNDUP
NATIONAL WEATHER SERVICE GREEN BAY WI
500 PM CST MON JAN 16 2017

WIZ005-009-010>012-018-019-170000-
NORTH CENTRAL WISCONSIN

CITY           SKY/WX    TMP DP  RH WIND       PRES   REMARKS
IRONWOOD       CLOUDY    30  22  72 CALM      30.08R
MANITOWISH WTR NOT AVBL
ARBOR VITAE    NOT AVBL
EAGLE RIVER    NOT AVBL
LAND O LAKES   NOT AVBL
RHINELANDER    CLOUDY    30  19  63 CALM      30.07F
PHILLIPS       CLOUDY    25  20  79 CALM      30.05S
ANTIGO         NOT AVBL
TOMAHAWK       NOT AVBL
MERRILL        CLOUDY    28  17  65 CALM        N/A
$$

WIZ013-073-170000-
NORTHEAST WISCONSIN

CITY           SKY/WX    TMP DP  RH WIND       PRES   REMARKS
IRON MOUNTAIN  CLOUDY    29  18  63 E5        30.09S
MARINETTE      NOT AVBL
$$

WIZ017-030-035>037-045-170000-
CENTRAL WISCONSIN

CITY           SKY/WX    TMP DP  RH WIND       PRES   REMARKS
MEDFORD        NOT AVBL
WAUSAU         CLOUDY    32  18  56 E3        30.07F
MOSINEE        CLOUDY    30  16  55 E7        30.08F
MARSHFIELD     MIX PCPN  29  21  72 E9        30.04F
WISC RAPIDS    MIX PCPN  30  29  96 E7        30.07F FOG
STEVENS POINT  NOT AVBL
WAUPACA        NOT AVBL
SHAWANO        NOT AVBL
CLINTONVILLE   MIX PCPN  30  23  74 CALM      30.12F
WAUTOMA        FRZ RAIN  31  29  92 NE8       30.08F FOG
$$

WIZ038-039-048-051-170000-
FOX VALLEY

CITY           SKY/WX    TMP DP  RH WIND       PRES   REMARKS
NWS GREEN BAY  LGT RAIN  33  26  75 CALM      30.12F
APPLETON       LGT RAIN  30  25  80 NE5       30.09F
OSHKOSH        MIX PCPN  32  30  92 E7        30.09F FOG
FOND DU LAC    LGT RAIN  34  30  85 E7        30.08F FOG
$$

WIZ022-050-052-170000-
EAST CENTRAL WISCONSIN

CITY           SKY/WX    TMP DP  RH WIND       PRES   REMARKS
EPHRAIM        NOT AVBL
WASHINGTON ISL NOT AVBL
STURGEON BAY   CLOUDY    30  19  63 E3        30.15S
MANITOWOC      MIX PCPN  34  30  86 E3        30.13F FOG
SHEBOYGAN      MIX PCPN  33  31  92 E6        30.11F FOG
$$

LMZ563-521-522-541>543-170000-
LAKESHORE

STATION/POSITION TIME  TEMP    WIND        PRES    VSBY  WAVE
                       AIR SEA DIR/SP/G                  HT/PER
                 (UTC) (F)     (DEG/KT/KT) (MB)    (MI)  (FT/S)
SHEBOYGAN LKSHOR 2200   34     100/ 11/ 11 1020.9F
KEWAUNEE LKSHORE 2230   31        CALM     1020.2F
ALGOMA MARINA    2208             CALM       N/A
NORTHPORT PIER   2240   29        CALM     1020.7F
SISTER BAY LKSHO 2220   28     190/  4/  5   N/A
MENOMINEE LKSHOR 2230          160/  4/  5 1020.1S
$$




USA.gov is the U.S. government's official web portal to all federal, state and local government web resources and services.